Theta_e
356 355 360 364 362 364 363 364 365 354 356 356 357 358 355 350 351 352 342 341 341 340 338 343 345 344 344 344 344 344 345 345 345 346 347 347 347 345 344 346 347 347 347 348
359 361 352 353 354 361 361 365 361 346 352 355 358 360 356 353 354 354 347 342 341 339 337 340 343 344 345 345 345 345 345 345 346 346 347 349 348 346 344 346 347 345 346 345
361 357 357 357 354 358 351 361 348 343 357 355 360 357 357 354 353 353 349 345 342 340 338 339 340 342 344 347 345 345 346 346 347 346 348 349 350 350 350 350 350 349 349 347
363 357 355 355 358 357 354 342 344 345 347 363 350 348 344 351 348 353 352 348 346 341 340 339 339 339 343 346 347 347 348 347 347 347 349 349 351 352 352 352 352 351 350 350
354 355 357 354 357 351 350 345 346 346 347 346 347 345 342 340 345 351 349 350 349 345 342 340 339 340 342 344 346 347 347 347 347 347 350 351 352 353 354 355 355 355 354 353
355 353 350 350 351 350 349 346 347 345 343 345 346 343 344 340 339 338 338 348 351 349 347 343 341 342 342 344 345 347 347 347 349 351 352 353 353 353 354 354 354 354 357 358
349 349 348 348 351 345 340 341 348 352 349 350 344 347 345 344 338 338 339 337 346 348 348 347 345 345 346 346 349 349 350 351 350 352 354 353 354 354 355 355 357 360 359 362
353 353 351 348 349 341 340 340 343 349 345 346 346 348 340 341 339 337 337 337 337 335 340 342 347 348 348 349 350 351 353 353 354 355 356 356 355 356 356 356 357 360 363 361
355 354 349 347 341 332 334 332 331 333 335 341 340 340 340 340 340 339 336 337 336 337 340 343 344 348 348 348 350 350 351 353 355 355 357 359 358 358 358 359 361 361 361 355
352 354 346 345 339 332 333 330 325 323 340 344 340 340 338 343 341 339 333 336 336 338 338 338 339 341 342 348 348 346 342 344 352 357 359 360 359 358 359 361 363 363 355 355
350 347 345 344 336 332 330 327 324 323 330 337 339 335 331 339 333 333 336 334 334 337 338 339 340 341 341 342 343 341 340 342 350 362 361 359 359 364 363 362 360 357 357 357
349 346 344 343 341 336 331 330 325 327 329 327 330 336 332 337 337 337 337 339 339 339 340 339 338 340 340 341 341 340 345 361 363 362 361 358 354 360 361 358 357 353 349 346
348 349 346 339 335 332 336 333 329 323 323 331 332 336 340 336 336 337 341 340 339 338 337 336 337 347 350 351 350 359 362 361 361 360 348 343 341 346 356 356 354 353 353 352
347 341 337 339 335 333 336 332 331 325 327 327 340 345 338 334 336 336 340 338 336 335 335 338 339 340 355 356 351 352 358 343 337 348 337 335 336 335 356 356 356 355 354 353
335 337 334 333 333 333 334 333 332 333 332 331 342 339 337 335 339 340 338 334 333 335 337 342 347 348 350 350 348 346 344 344 340 339 339 335 339 345 350 350 354 355 353 351
327 332 335 335 335 334 335 333 334 339 340 339 336 338 334 333 334 332 332 331 332 335 341 343 345 344 345 347 347 346 344 342 340 337 334 333 335 335 343 342 347 344 344 347
332 333 331 335 336 334 334 334 337 339 338 337 339 337 334 333 332 330 328 328 332 339 340 342 343 343 345 342 341 339 344 343 342 339 337 339 338 337 343 345 347 348 349 349
331 330 329 332 333 338 334 336 338 339 339 337 336 335 334 332 330 330 329 336 339 339 338 337 342 345 346 346 344 344 346 347 347 342 342 343 347 345 344 343 340 339 340 342
333 334 340 338 339 339 342 341 339 339 341 337 334 333 333 333 330 330 335 339 339 338 337 338 341 339 338 340 342 342 343 341 343 345 344 341 338 339 341 340 339 340 343 344
336 334 339 343 345 347 342 342 338 336 343 337 332 331 333 330 331 330 334 338 337 338 337 335 337 336 335 337 339 338 339 339 339 340 339 340 340 340 339 338 339 338 340 340
337 342 345 347 346 343 339 339 337 339 338 335 331 332 334 332 330 331 338 338 337 337 336 334 336 335 335 335 336 336 337 337 336 337 339 340 339 339 336 338 338 338 338 339
335 336 339 343 345 346 335 337 339 336 335 332 333 334 334 335 336 338 338 337 335 335 335 334 336 335 335 334 336 335 337 338 338 338 340 337 336 336 337 338 338 338 337 337
328 330 332 336 340 335 334 336 335 331 332 333 333 334 335 335 336 336 337 336 334 335 334 334 337 335 335 337 336 335 337 338 336 334 333 335 336 335 336 336 337 336 337 336
327 330 335 336 339 338 336 335 335 335 335 335 334 334 333 333 333 334 334 334 333 335 335 336 336 335 335 332 329 331 334 335 334 334 336 335 334 335 335 335 335 336 336 336
324 329 335 337 337 334 334 334 334 335 335 333 333 334 334 333 334 334 332 331 333 335 334 335 334 333 333 331 325 322 325 331 333 335 334 334 334 335 335 335 336 336 336 336
330 329 332 336 332 333 332 331 333 335 335 334 336 335 332 331 332 331 330 332 333 333 332 333 333 333 333 332 331 331 332 333 332 333 334 334 335 334 334 334 335 335 335 335
Wind_Speed
1 5 7 9 13 9 8 5 10 10 8 7 7 5 4 6 6 8 9 10 10 10 11 26 27 30 32 31 33 33 31 29 28 26 23 22 24 24 25 27 26 25 23 28
4 1 6 10 10 15 12 12 13 8 8 6 7 7 6 5 8 13 13 12 12 8 7 14 27 32 33 33 34 35 33 31 32 31 30 27 26 25 26 27 28 30 31 29
4 7 13 12 9 13 10 17 8 6 7 1 7 7 6 6 7 10 14 14 12 15 15 15 18 28 34 36 42 42 40 37 36 35 33 30 25 26 26 30 29 29 29 30
3 7 10 13 7 3 4 10 6 9 7 5 1 3 4 7 8 14 16 14 14 15 15 16 20 23 31 38 43 45 43 43 42 39 39 38 31 25 29 30 32 33 33 34
4 3 4 9 4 1 9 1 7 5 6 5 2 5 7 4 7 12 15 17 18 18 18 19 19 30 35 36 39 44 44 43 42 43 43 42 35 34 32 30 31 31 30 30
10 7 6 7 9 10 9 6 4 5 4 2 6 5 5 6 9 6 6 17 20 19 19 19 30 30 31 32 33 39 40 43 42 41 43 37 34 32 32 32 33 32 27 24
5 5 5 7 4 5 6 6 3 4 3 5 5 3 9 5 8 10 13 10 17 18 18 16 16 18 22 25 30 32 38 44 48 46 44 45 42 38 36 33 30 30 30 25
2 7 1 2 7 6 2 8 6 6 3 1 6 4 6 5 8 5 6 7 3 10 10 10 15 17 23 27 35 34 35 40 37 44 50 50 46 42 38 33 31 28 27 29
3 5 6 9 5 7 4 0 5 6 4 4 3 4 7 4 2 4 9 12 10 9 8 10 12 25 24 31 35 39 39 41 39 47 40 36 38 39 36 31 31 30 26 22
1 4 5 7 6 3 4 2 4 4 3 1 3 4 4 2 3 4 4 8 6 5 6 5 7 14 15 31 37 33 23 25 35 34 28 26 39 47 31 27 27 27 22 20
3 4 8 4 0 5 4 4 6 5 5 5 2 4 5 6 7 9 3 6 6 2 3 5 5 12 19 24 31 30 29 22 26 18 20 15 48 31 23 23 25 25 22 22
7 5 3 5 8 6 5 5 6 5 6 2 5 3 9 10 8 7 8 9 8 10 7 4 5 13 17 21 28 32 18 12 4 5 5 15 37 13 13 19 26 24 25 24
6 0 3 10 7 6 6 5 3 5 3 3 5 4 5 5 10 8 11 8 8 8 9 9 9 6 10 15 6 13 17 21 19 9 17 9 15 37 31 29 29 27 27 26
6 4 6 6 6 3 2 4 4 5 3 3 1 7 4 7 8 7 7 7 7 6 6 5 7 7 8 14 15 22 22 16 18 6 10 16 22 43 39 37 30 29 29 28
8 8 6 3 3 3 1 5 8 3 3 5 7 5 2 4 7 5 3 7 9 9 9 7 6 7 9 13 14 12 15 13 14 12 19 19 16 22 20 31 38 32 29 32
4 2 3 2 3 7 4 8 12 11 11 10 9 5 3 3 6 9 7 7 8 8 6 7 7 5 8 10 8 4 2 6 8 14 13 19 21 24 21 26 42 36 46 35
5 5 3 2 3 5 6 7 6 7 6 9 5 4 2 6 8 6 7 7 7 7 7 7 7 6 8 10 11 11 10 6 5 5 9 14 16 14 22 25 26 28 29 25
3 4 3 2 4 3 2 9 16 17 10 10 10 5 5 4 3 3 5 7 7 7 7 7 5 9 9 12 15 14 14 13 11 11 14 18 18 18 17 20 23 25 26 25
7 5 5 4 2 4 4 3 1 5 3 1 7 4 4 2 3 5 4 4 6 6 4 5 7 10 12 11 10 10 10 12 11 10 11 14 20 21 23 27 29 29 26 24
9 8 6 3 4 4 7 5 5 6 1 3 6 4 3 4 4 4 4 4 5 7 7 10 8 9 14 12 9 12 11 11 11 14 20 19 19 21 26 28 27 31 32 32
4 4 5 3 3 6 6 5 2 2 5 3 4 3 3 2 4 3 2 2 1 2 6 8 8 11 13 16 15 20 20 19 21 19 19 17 19 22 27 26 27 28 29 30
4 4 4 3 2 5 1 6 1 4 3 5 3 3 5 5 4 1 1 2 4 5 8 12 10 12 16 18 20 24 22 27 22 20 20 23 25 25 26 26 27 27 27 26
2 6 4 4 4 4 6 8 4 4 4 2 5 5 5 4 4 4 3 3 5 7 10 13 14 14 22 26 32 30 28 24 23 21 22 25 25 27 26 25 26 24 22 21
6 3 5 5 3 3 6 4 5 4 5 5 5 4 4 4 6 5 4 5 6 14 14 20 18 20 19 26 25 21 21 25 31 26 27 26 26 26 27 26 23 22 21 20
4 4 5 4 2 5 5 3 4 3 5 4 5 3 3 4 3 1 4 6 9 13 16 18 17 16 17 19 21 22 23 24 28 29 29 28 25 25 26 26 24 24 27 23
1 6 4 4 5 6 3 3 2 6 4 4 3 3 6 5 4 5 5 7 11 12 16 15 16 15 16 22 24 21 22 23 26 25 23 26 28 25 25 22 26 26 24 20
Wind_Direction
44 90 147 190 195 218 252 259 268 275 197 149 199 230 233 184 176 183 194 192 188 186 191 189 185 182 183 188 191 192 197 206 209 210 213 222 228 231 230 230 233 237 234 235
40 240 188 206 232 232 244 258 270 273 220 136 187 237 212 181 206 196 188 197 193 187 174 189 183 187 189 192 197 197 202 207 211 216 217 219 225 231 231 232 235 234 236 240
122 243 314 278 232 234 255 227 242 125 129 197 104 328 282 259 220 223 195 203 191 192 188 189 191 193 191 192 195 199 203 209 213 219 220 220 229 233 234 238 240 239 237 240
208 262 270 293 286 164 326 201 203 146 110 157 197 245 271 246 227 198 195 200 201 199 199 195 194 195 191 199 200 204 207 209 212 216 218 218 216 221 230 237 243 246 249 250
262 229 263 309 254 112 229 359 57 359 85 105 230 87 259 190 211 197 203 200 208 204 199 197 201 200 200 198 201 206 211 213 215 217 219 216 212 222 230 236 244 248 252 254
260 285 286 233 262 264 255 133 44 65 94 35 219 134 270 201 198 228 222 204 208 209 205 205 205 203 202 203 205 208 212 218 218 220 219 219 220 218 223 233 240 251 255 262
304 255 247 201 264 312 190 76 10 359 8 223 171 93 241 252 227 207 221 210 211 214 203 204 206 206 204 206 206 210 216 216 217 217 221 221 225 227 230 234 233 239 255 251
75 326 308 50 197 207 235 139 154 196 209 243 144 248 259 223 201 199 236 240 268 119 145 181 207 204 203 205 212 211 216 226 221 217 220 223 225 225 231 238 243 242 247 263
159 278 297 281 280 133 287 66 191 112 24 81 233 295 322 61 158 85 99 102 112 111 142 150 182 205 200 201 215 221 223 226 223 224 220 218 222 231 235 235 236 245 247 250
20 308 233 301 357 347 163 209 13 12 117 189 274 328 241 123 220 39 77 79 63 91 151 195 219 222 220 207 218 227 225 231 241 227 214 212 237 237 231 238 237 243 243 250
82 60 307 299 346 178 3 10 45 109 125 154 126 302 254 217 68 79 88 90 99 139 234 260 283 259 246 236 241 256 254 260 248 201 201 235 242 221 219 228 240 240 245 252
192 148 270 278 271 251 183 166 122 109 300 61 111 310 342 83 79 112 61 56 59 73 93 127 230 257 260 254 261 267 267 257 232 152 101 24 354 323 257 255 250 240 244 249
174 287 300 337 349 2 50 336 104 113 90 190 120 222 335 46 53 41 76 61 53 53 37 20 12 355 276 270 19 100 87 64 20 75 88 85 226 269 268 253 245 245 248 251
97 173 166 192 217 206 325 358 63 102 85 137 226 149 303 45 58 46 45 56 62 63 53 38 17 350 16 83 108 107 116 150 221 171 254 282 263 244 263 250 247 249 253 259
167 201 188 220 252 63 172 0 347 64 201 132 198 129 275 86 97 91 69 35 34 31 43 42 45 15 55 82 98 95 111 150 205 270 289 283 272 269 295 289 267 254 258 266
218 225 179 332 17 45 38 351 75 80 97 93 122 113 222 72 69 44 26 28 23 33 55 46 53 46 33 31 29 11 271 285 272 255 268 293 281 279 297 299 300 311 293 273
149 137 84 287 358 53 15 348 69 71 27 126 145 169 151 62 70 38 15 27 50 68 52 52 45 39 34 26 16 4 360 356 320 275 308 324 305 302 294 273 291 270 282 291
118 99 56 165 43 81 259 68 80 81 53 69 84 77 70 113 169 90 19 99 72 70 63 61 76 65 38 22 12 359 348 342 326 319 315 324 323 311 307 314 330 323 321 316
87 96 54 94 80 288 315 27 30 127 14 54 111 87 61 24 92 20 24 89 107 91 82 87 100 71 45 36 29 26 16 2 348 317 312 315 319 322 324 326 325 322 318 310
59 59 109 79 111 188 233 283 113 126 128 261 104 72 72 61 43 268 325 71 73 79 68 50 62 41 18 11 9 1 351 338 328 320 323 321 323 323 323 319 319 320 315 309
32 16 105 157 189 285 259 265 7 200 206 197 88 57 55 58 198 239 136 57 90 57 19 20 18 6 349 344 341 337 324 317 320 318 316 317 317 311 315 306 304 308 302 295
131 132 200 112 169 277 60 41 96 189 151 96 59 61 72 71 53 147 81 13 352 342 343 345 334 330 327 331 331 328 314 319 328 330 320 317 318 315 306 299 296 295 290 283
27 180 168 170 193 280 19 104 102 136 116 54 77 64 99 65 12 340 236 269 312 310 313 327 302 314 337 350 354 342 330 323 315 315 317 319 319 320 312 300 299 293 290 277
323 129 113 89 324 81 85 75 91 84 82 80 94 115 76 35 12 10 359 334 331 322 335 345 359 3 1 342 340 353 349 346 328 323 322 324 323 319 320 314 303 294 288 284
212 52 111 46 74 63 30 117 159 137 114 82 67 65 72 80 19 32 2 4 359 17 22 26 23 8 354 344 337 339 339 342 322 321 324 323 318 319 318 317 303 295 298 288
332 163 139 196 205 140 229 281 156 90 101 108 104 333 359 18 347 37 48 31 23 24 18 14 2 353 336 329 333 343 347 350 340 328 318 326 322 319 314 305 309 316 307 297